Weather History for Sturgis, MI

Change the Weather History Date:

Wednesday, July 10, 2013

  Actual Average (KHAI) Record (KHAI)
Temperature  
Mean Temperature 72 °F -  
Max Temperature 82 °F 85 °F 95 °F (1974)
Min Temperature 62 °F 63 °F 42 °F (1963)
Cooling Degree Days 7    
Growing Degree Days 22 (Base 50)    
Moisture  
Dew Point 68 °F    
Average Humidity 80    
Maximum Humidity 100    
Minimum Humidity 50    
Precipitation  
Precipitation 0.00 in - - ()
Sea Level Pressure  
Sea Level Pressure 29.89 in    
Wind  
Wind Speed 7 mph (West)    
Max Wind Speed 16 mph    
Max Gust Speed 21 mph    
Visibility 8 miles    
Events      
Averages and records for this station are not official NWS values.
T = Trace of Precipitation, MM = Missing Value Source: NWS Daily Summary

Daily Weather History Graph

Daily Weather History Graph

Search for Another Location

Airport:

Trip Planner

Search our weather history database for the weather conditions in past years. The results will help you decide how hot, cold, wet, or windy it might be!

Date:

Astronomy

Jul. 10, 2013 Rise Set
Actual Time 6:16 AM EDT 9:17 PM EDT
Civil Twilight 5:42 AM EDT 9:51 PM EDT
Nautical Twilight 5:00 AM EDT 10:33 PM EDT
Astronomical Twilight 4:09 AM EDT 11:23 PM EDT
Moon 8:39 AM EDT (7/10) 10:23 PM EDT (7/10)
Length of Visible Light 16h 08m
Length of Day
15h 01m
Waxing Crescent, 5% of the Moon is Illuminated
Jul 10
Waxing Crescent
Jul 15
First Quarter
Jul 22
Full
Jul 29
Last Quarter
Aug 6
New

Hourly Weather History & Observations

Time (EDT) Temp. Heat Index Dew Point Humidity Pressure Visibility Wind Dir Wind Speed Gust Speed Precip Events Conditions
12:14 AM 75.2 °F - 73.4 °F 94% 29.91 in 5.0 mi SW 5.8 mph - N/A   Scattered Clouds
12:35 AM 75.2 °F - 73.4 °F 94% 29.91 in 7.0 mi SW 5.8 mph - N/A   Scattered Clouds
12:55 AM 75.2 °F - 73.4 °F 94% 29.91 in 7.0 mi WSW 5.8 mph - N/A   Clear
1:14 AM 77.0 °F - 73.4 °F 89% 29.90 in 7.0 mi SW 6.9 mph - N/A   Scattered Clouds
1:35 AM 77.0 °F - 73.4 °F 89% 29.90 in 7.0 mi SW 8.1 mph - N/A   Mostly Cloudy
1:55 AM 77.0 °F - 73.4 °F 89% 29.90 in 7.0 mi West 6.9 mph - N/A   Mostly Cloudy
2:14 AM 77.0 °F - 73.4 °F 89% 29.89 in 7.0 mi West 4.6 mph - N/A   Mostly Cloudy
2:35 AM 77.0 °F - 75.2 °F 94% 29.89 in 7.0 mi West 6.9 mph - N/A   Mostly Cloudy
2:54 AM 77.0 °F - 75.2 °F 94% 29.88 in 10.0 mi WSW 11.5 mph - N/A   Mostly Cloudy
3:15 AM 77.0 °F - 75.2 °F 94% 29.88 in 10.0 mi WSW 8.1 mph - N/A   Mostly Cloudy
3:35 AM 75.2 °F - 73.4 °F 94% 29.88 in 7.0 mi WSW 6.9 mph - N/A   Scattered Clouds
3:54 AM 77.0 °F - 75.2 °F 94% 29.88 in 7.0 mi WSW 8.1 mph - N/A   Scattered Clouds
4:15 AM 75.2 °F - 73.4 °F 94% 29.88 in 7.0 mi WSW 6.9 mph - N/A   Scattered Clouds
4:34 AM 75.2 °F - 73.4 °F 94% 29.88 in 5.0 mi WSW 5.8 mph - N/A   Clear
4:55 AM 75.2 °F - 73.4 °F 94% 29.88 in 5.0 mi SW 5.8 mph - N/A   Clear
5:15 AM 75.2 °F - 73.4 °F 94% 29.87 in 4.0 mi SW 5.8 mph - N/A   Clear
5:34 AM 75.2 °F - 73.4 °F 94% 29.87 in 4.0 mi SW 4.6 mph - N/A   Clear
5:55 AM 73.4 °F - 73.4 °F 100% 29.87 in 4.0 mi WSW 4.6 mph - N/A   Clear
6:15 AM 73.4 °F - 73.4 °F 100% 29.87 in 4.0 mi WSW 4.6 mph - N/A   Clear
6:34 AM 73.4 °F - 73.4 °F 100% 29.87 in 3.0 mi SW 4.6 mph - N/A   Clear
6:55 AM 73.4 °F - 73.4 °F 100% 29.87 in 2.5 mi SW 4.6 mph - N/A   Clear
7:15 AM 75.2 °F - 73.4 °F 94% 29.87 in 2.0 mi Calm Calm - N/A   Clear
7:34 AM 75.2 °F - 73.4 °F 94% 29.86 in 3.0 mi SW 3.5 mph - N/A   Clear
7:55 AM 75.2 °F - 75.2 °F 100% 29.86 in 3.0 mi SW 3.5 mph - N/A   Clear
8:15 AM 77.0 °F - 75.2 °F 94% 29.86 in 4.0 mi WSW 3.5 mph - N/A   Clear
8:34 AM 77.0 °F - 75.2 °F 94% 29.86 in 5.0 mi West 4.6 mph - N/A   Scattered Clouds
8:55 AM 78.8 °F - 75.2 °F 89% 29.87 in 5.0 mi West 4.6 mph - N/A   Clear
9:15 AM 78.8 °F - 75.2 °F 89% 29.87 in 5.0 mi West 6.9 mph - N/A   Scattered Clouds
9:34 AM 78.8 °F - 75.2 °F 89% 29.87 in 7.0 mi West 5.8 mph - N/A   Scattered Clouds
9:55 AM 80.6 °F 86.2 °F 75.2 °F 84% 29.87 in 5.0 mi WSW 6.9 mph - N/A   Scattered Clouds
10:15 AM 80.6 °F 86.2 °F 75.2 °F 84% 29.86 in 5.0 mi WSW 5.8 mph - N/A   Haze
10:34 AM 80.6 °F 86.2 °F 75.2 °F 84% 29.85 in 5.0 mi West 6.9 mph - N/A   Haze
10:55 AM 82.4 °F 89.5 °F 75.2 °F 79% 29.85 in 7.0 mi West 6.9 mph - N/A   Scattered Clouds
11:15 AM 82.4 °F 89.5 °F 75.2 °F 79% 29.85 in 7.0 mi West 6.9 mph - N/A   Scattered Clouds
11:34 AM 82.4 °F 89.5 °F 75.2 °F 79% 29.85 in 7.0 mi WSW 6.9 mph - N/A   Clear
11:55 AM 80.6 °F 86.2 °F 75.2 °F 84% 29.84 in 5.0 mi WNW 6.9 mph - N/A   Scattered Clouds
12:15 PM 80.6 °F 86.2 °F 75.2 °F 84% 29.85 in 7.0 mi NW 8.1 mph - N/A   Scattered Clouds
12:34 PM 80.6 °F 85.4 °F 73.4 °F 79% 29.85 in 10.0 mi WNW 6.9 mph - N/A   Scattered Clouds
12:55 PM 80.6 °F 85.4 °F 73.4 °F 79% 29.86 in 10.0 mi West 9.2 mph 17.3 mph N/A   Scattered Clouds
1:15 PM 82.4 °F 88.2 °F 73.4 °F 74% 29.85 in 10.0 mi WNW 5.8 mph - N/A   Scattered Clouds
1:34 PM 80.6 °F 84.6 °F 71.6 °F 74% 29.86 in 10.0 mi West 11.5 mph - N/A   Scattered Clouds
1:55 PM 80.6 °F 84.6 °F 71.6 °F 74% 29.84 in 10.0 mi NW 15.0 mph 20.7 mph N/A   Clear
2:14 PM 78.8 °F - 71.6 °F 78% 29.86 in 10.0 mi WNW 12.7 mph - N/A   Clear
2:35 PM 78.8 °F - 71.6 °F 78% 29.87 in 10.0 mi NW 11.5 mph 16.1 mph N/A   Scattered Clouds
2:54 PM 78.8 °F - 69.8 °F 74% 29.90 in 10.0 mi WNW 5.8 mph 10.4 mph N/A   Clear
3:15 PM 78.8 °F - 69.8 °F 74% 29.92 in 10.0 mi West 6.9 mph 16.1 mph N/A   Mostly Cloudy
3:34 PM 78.8 °F - 68.0 °F 69% 29.92 in 10.0 mi West 10.4 mph - N/A   Mostly Cloudy
3:55 PM 77.0 °F - 66.2 °F 69% 29.91 in 10.0 mi WNW 11.5 mph - N/A   Mostly Cloudy
4:15 PM 78.8 °F - 64.4 °F 61% 29.90 in 10.0 mi WNW 12.7 mph 18.4 mph N/A   Scattered Clouds
4:34 PM 78.8 °F - 62.6 °F 57% 29.89 in 10.0 mi NW 15.0 mph 20.7 mph N/A   Scattered Clouds
4:55 PM 78.8 °F - 64.4 °F 61% 29.88 in 10.0 mi NW 11.5 mph 20.7 mph N/A   Clear
5:14 PM 78.8 °F - 64.4 °F 61% 29.87 in 10.0 mi NNW 12.7 mph 18.4 mph N/A   Clear
5:35 PM 77.0 °F - 62.6 °F 61% 29.87 in 10.0 mi NNW 13.8 mph 20.7 mph N/A   Clear
5:55 PM 75.2 °F - 62.6 °F 65% 29.88 in 10.0 mi NW 13.8 mph 20.7 mph N/A   Clear
6:14 PM 75.2 °F - 60.8 °F 61% 29.88 in 10.0 mi NW 9.2 mph 19.6 mph N/A   Clear
6:35 PM 75.2 °F - 57.2 °F 53% 29.89 in 10.0 mi NW 10.4 mph 18.4 mph N/A   Scattered Clouds
6:55 PM 75.2 °F - 55.4 °F 50% 29.89 in 10.0 mi NNW 16.1 mph 20.7 mph N/A   Clear
7:14 PM 73.4 °F - 55.4 °F 53% 29.89 in 10.0 mi NW 9.2 mph 20.7 mph N/A   Clear
7:35 PM 73.4 °F - 55.4 °F 53% 29.90 in 10.0 mi NNW 15.0 mph 18.4 mph N/A   Clear
7:55 PM 71.6 °F - 55.4 °F 57% 29.91 in 10.0 mi NNW 11.5 mph 16.1 mph N/A   Clear
8:15 PM 71.6 °F - 55.4 °F 57% 29.92 in 10.0 mi NW 11.5 mph 16.1 mph N/A   Clear
8:35 PM 69.8 °F - 55.4 °F 60% 29.92 in 10.0 mi NW 9.2 mph 19.6 mph N/A   Clear
8:54 PM 69.8 °F - 55.4 °F 60% 29.93 in 10.0 mi NNW 15.0 mph 18.4 mph N/A   Clear
9:15 PM 68.0 °F - 55.4 °F 64% 29.95 in 10.0 mi NW 5.8 mph 10.4 mph N/A   Clear
9:35 PM 66.2 °F - 55.4 °F 68% 29.95 in 10.0 mi NW 5.8 mph - N/A   Clear
9:54 PM 66.2 °F - 55.4 °F 68% 29.96 in 10.0 mi NW 3.5 mph - N/A   Clear
10:15 PM 64.4 °F - 55.4 °F 73% 29.96 in 10.0 mi Calm Calm - N/A   Clear
10:35 PM 64.4 °F - 55.4 °F 73% 29.97 in 10.0 mi Calm Calm - N/A   Clear
10:54 PM 64.4 °F - 55.4 °F 73% 29.97 in 10.0 mi Calm Calm - N/A   Clear
11:15 PM 62.6 °F - 55.4 °F 77% 29.99 in 10.0 mi Calm Calm - N/A   Clear
11:35 PM 62.6 °F - 55.4 °F 77% 29.99 in 10.0 mi Calm Calm - N/A   Clear
11:54 PM 62.6 °F - 57.2 °F 82% 30.00 in 10.0 mi Calm Calm - N/A   Clear